Dubuque, IA

11:54 AM CST on November 22, 2019 (GMT -0600)
Dubuque Regional

Weather History for KDBQ - September, 2019

Change the Weather History Date:

Thursday, September 26, 2019

  Actual Average Record
Temperature  
Mean Temperature 59 °F 58 °F  
Max Temperature 71 °F 68 °F 89 °F (1981)
Min Temperature 47 °F 47 °F 31 °F (1926)
Degree Days  
Heating Degree Days 6 8  
Month to date heating degree days 34 115  
Since 1 July heating degree days 43 142  
Cooling Degree Days 0 1  
Month to date cooling degree days 86 58  
Year to date cooling degree days 659 634  
Growing Degree Days 9 (Base 50)    
Moisture  
Dew Point 48 °F    
Average Humidity 68    
Maximum Humidity 96    
Minimum Humidity 39    
Precipitation  
Precipitation 0.00 in 0.11 in 4.01 in (1881)
Month to date precipitation 12.14 3.06  
Year to date precipitation 43.27 29.04  
Snow  
Snow 0.00 in 0.00 in - ()
Month to date snowfall 0.0 0.0  
Since 1 July snowfall 0.0 0.0  
Since 1 September snowfall 0.0 0.0  
Snow Depth 0.00 in    
Sea Level Pressure  
Sea Level Pressure 29.93 in    
Wind  
Wind Speed 9 mph ()    
Max Wind Speed 22 mph    
Max Gust Speed 29 mph    
Visibility 10.0 miles    
Events      
T = Trace of Precipitation, MM = Missing Value Source: Averaged Metar Reports

Daily Weather History Graph

Daily Weather History Graph

Search for Another Location

Airport or City:

Astronomy

Sep. 26, 2019 Rise Set
Actual Time 6:54 AM CDT 6:53 PM CDT
Civil Twilight 6:26 AM CDT 7:21 PM CDT
Nautical Twilight 5:53 AM CDT 7:54 PM CDT
Astronomical Twilight 5:20 AM CDT 8:27 PM CDT
Moon 3:56 AM CDT (9/26) 6:10 PM CDT (9/26)
Length of Visible Light 12h 55m
Length of Day
11h 59m
Waning Crescent, 6% of the Moon is Illuminated
Sep 26
Waning Crescent
Sep 28
New
Oct 5
First Quarter
Oct 13
Full
Oct 21
Last Quarter

Hourly Weather History & Observations

Time (CDT) Temp. Dew Point Humidity Pressure Visibility Wind Dir Wind Speed Gust Speed Precip Events Conditions
12:53 AM 57.9 °F 50.0 °F 75% 29.92 in 10.0 mi WNW 11.5 mph - N/A   Clear
1:53 AM 55.9 °F 50.0 °F 80% 29.91 in 10.0 mi West 11.5 mph - N/A   Clear
2:53 AM 54.0 °F 50.0 °F 86% 29.92 in 10.0 mi West 10.4 mph - N/A   Clear
3:53 AM 52.0 °F 48.9 °F 89% 29.94 in 10.0 mi West 3.5 mph - N/A   Clear
4:53 AM 50.0 °F 48.0 °F 93% 29.95 in 10.0 mi West 5.8 mph - N/A   Clear
5:53 AM 50.0 °F 48.0 °F 93% 29.97 in 10.0 mi West 6.9 mph - N/A   Clear
6:53 AM 48.0 °F 46.9 °F 96% 29.98 in 10.0 mi SW 6.9 mph - N/A   Clear
7:53 AM 50.0 °F 48.9 °F 96% 29.99 in 10.0 mi SW 6.9 mph - N/A   Clear
8:53 AM 55.0 °F 51.1 °F 86% 29.99 in 10.0 mi WSW 9.2 mph - N/A   Clear
9:53 AM 60.1 °F 51.1 °F 72% 30.00 in 10.0 mi SW 8.1 mph - N/A   Clear
10:53 AM 64.0 °F 50.0 °F 60% 30.00 in 10.0 mi WSW 10.4 mph - N/A   Clear
11:53 AM 66.9 °F 48.9 °F 52% 30.00 in 10.0 mi West 13.8 mph 19.6 mph N/A   Clear
12:53 PM 69.1 °F 48.0 °F 47% 29.99 in 10.0 mi West 11.5 mph 23.0 mph N/A   Clear
1:53 PM 70.0 °F 44.1 °F 39% 29.96 in 10.0 mi West 19.6 mph - N/A   Clear
2:53 PM 70.0 °F 45.0 °F 41% 29.94 in 10.0 mi WNW 15.0 mph 24.2 mph N/A   Clear
3:53 PM 70.0 °F 44.1 °F 39% 29.92 in 10.0 mi West 9.2 mph - N/A   Clear
4:53 PM 69.1 °F 44.1 °F 40% 29.91 in 10.0 mi WSW 11.5 mph - N/A   Clear
5:53 PM 66.9 °F 46.9 °F 49% 29.90 in 10.0 mi SW 6.9 mph - N/A   Clear
6:53 PM 61.0 °F 50.0 °F 67% 29.89 in 10.0 mi South 5.8 mph - N/A   Clear
7:53 PM 62.1 °F 48.9 °F 62% 29.88 in 10.0 mi SSE 8.1 mph - N/A   Clear
8:53 PM 60.1 °F 48.9 °F 67% 29.88 in 10.0 mi SSE 9.2 mph - N/A   Clear
9:53 PM 60.1 °F 50.0 °F 69% 29.87 in 10.0 mi South 8.1 mph - N/A   Mostly Cloudy
10:53 PM 60.1 °F 48.9 °F 67% 29.83 in 10.0 mi South 12.7 mph - N/A   Clear
11:53 PM 60.1 °F 48.9 °F 67% 29.82 in 10.0 mi South 13.8 mph - N/A   Mostly Cloudy